EW1792 Weather Reports


Display with metric or nautical units.
time (UTC)temp
F
wind
direction
speed
MPH
gust
MPH
rain 1hr
in
rain 24hr
in
rain mn
in
humidity
%
barometer
mb
20260903051541 80 233 2.0 4.0 0.00 0.00 0.00 77 1015.6
20260903051041 80 233 2.0 5.0 0.00 0.00 0.00 78 1015.6
20260903050542 80 229 2.0 5.0 0.00 0.00 0.00 78 1015.6
20260903050041 80 230 2.0 4.0 0.00 0.00 0.00 78 1015.5
20260903045540 80 229 2.0 3.0 0.00 0.00 0.00 78 1015.7
20260903045039 80 229 1.0 3.0 0.00 0.00 0.00 78 1015.6
20260903044549 80 228 1.0 4.0 0.00 0.00 0.00 78 1015.6
20260903044039 80 228 1.0 4.0 0.00 0.00 0.00 78 1015.6
20260903043539 80 229 1.0 4.0 0.00 0.00 0.00 78 1015.6
20260903043037 80 229 2.0 4.0 0.00 0.00 0.00 78 1015.6
20260903042537 80 229 1.0 5.0 0.00 0.00 0.00 78 1015.6
20260903042040 80 242 2.0 4.0 0.00 0.00 0.00 78 1015.6
20260903041538 81 249 1.0 3.0 0.00 0.00 0.00 78 1015.6
20260903041036 81 249 0.0 2.0 0.00 0.00 0.00 78 1015.7
20260903040538 81 249 0.0 2.0 0.00 0.00 0.00 78 1015.7
20260903040035 81 249 0.0 2.0 0.00 0.00 0.00 78 1015.7
20260903035536 80 249 0.0 3.0 0.00 0.00 0.00 78 1015.7
20260903035034 80 249 2.0 4.0 0.00 0.00 0.00 78 1015.7
20260903034534 80 249 2.0 4.0 0.00 0.00 0.00 79 1015.7
20260903034033 80 258 2.0 4.0 0.00 0.00 0.00 79 1015.7
20260903033533 80 259 1.0 4.0 0.00 0.00 0.00 79 1015.7
20260903033034 80 260 1.0 3.0 0.00 0.00 0.00 79 1015.8
20260903032533 80 260 0.0 2.0 0.00 0.00 0.00 79 1015.8
20260903032032 80 260 0.0 1.0 0.00 0.00 0.00 78 1015.8
20260903031532 80 260 0.0 1.0 0.00 0.00 0.00 78 1015.8
20260903031032 80 260 0.0 0.0 0.00 0.00 0.00 78 1015.8
20260903030535 81 260 0.0 0.0 0.00 0.00 0.00 78 1015.9
20260903030034 81 260 0.0 0.0 0.00 0.00 0.00 78 1015.8
20260903025534 81 260 0.0 0.0 0.00 0.00 0.00 78 1015.8
20260903025032 81 260 0.0 0.0 0.00 0.00 0.00 77 1015.8
20260903024532 81 260 0.0 0.0 0.00 0.00 0.00 77 1015.8
20260903024034 81 260 0.0 0.0 0.00 0.00 0.00 77 1015.8
20260903023531 81 260 0.0 0.0 0.00 0.00 0.00 77 1015.8
20260903023034 81 260 0.0 0.0 0.00 0.00 0.00 77 1015.8
20260903022530 82 260 0.0 0.0 0.00 0.00 0.00 77 1015.8
20260903022031 82 260 0.0 1.0 0.00 0.00 0.00 76 1015.8
20260903021631 82 260 0.0 3.0 0.00 0.00 0.00 76 1015.8
20260903021030 82 260 1.0 3.0 0.00 0.00 0.00 76 1015.8
20260903020530 82 261 1.0 3.0 0.00 0.00 0.00 76 1015.8
20260903020038 82 261 1.0 2.0 0.00 0.00 0.00 76 1015.8
20260903015531 83 261 1.0 2.0 0.00 0.00 0.00 75 1015.8
20260903015029 83 261 0.0 0.0 0.00 0.00 0.00 73 1015.8
20260903014536 84 261 0.0 0.0 0.00 0.00 0.00 72 1015.8
20260903014031 84 261 0.0 0.0 0.00 0.00 0.00 71 1015.8
20260903013528 84 261 0.0 0.0 0.00 0.00 0.00 71 1015.7
20260903013029 84 261 0.0 2.0 0.00 0.00 0.00 71 1015.8
20260903012527 84 261 0.0 2.0 0.00 0.00 0.00 71 1015.7
20260903012027 85 261 1.0 3.0 0.00 0.00 0.00 71 1015.7
20260903011527 85 261 1.0 3.0 0.00 0.00 0.00 70 1015.5
20260903011030 85 261 1.0 3.0 0.00 0.00 0.00 70 1015.4
20260903010527 85 261 2.0 3.0 0.00 0.00 0.00 69 1015.4
20260903010031 86 261 2.0 3.0 0.00 0.00 0.00 69 1015.3
20260903005527 86 261 1.0 3.0 0.00 0.00 0.00 68 1015.3
20260903005027 86 261 1.0 3.0 0.00 0.00 0.00 67 1015.3
20260903004526 86 261 1.0 3.0 0.00 0.00 0.00 67 1015.3
20260903004026 87 261 0.0 2.0 0.00 0.00 0.00 66 1015.3
20260903003526 87 261 0.0 2.0 0.00 0.00 0.00 66 1015.3
20260903003025 87 261 0.0 2.0 0.00 0.00 0.00 65 1015.3
20260903002525 88 261 1.0 3.0 0.00 0.00 0.00 65 1015.2
20260903002027 88 261 1.0 3.0 0.00 0.00 0.00 65 1015.2
20260903001524 88 261 1.0 3.0 0.00 0.00 0.00 64 1015.3
20260903001026 89 261 1.0 3.0 0.00 0.00 0.00 64 1015.4
20260903000525 89 261 0.0 0.0 0.00 0.00 0.00 63 1015.4
20260903000024 90 261 0.0 0.0 0.00 0.00 0.00 62 1015.4
20260902235523 90 261 0.0 1.0 0.00 0.00 0.00 62 1015.4
20260902235022 90 261 0.0 3.0 0.00 0.00 0.00 62 1015.4
20260902234523 91 261 1.0 3.0 0.00 0.00 0.00 62 1015.4
20260902234024 91 261 2.0 6.0 0.00 0.00 0.00 61 1015.4
20260902233522 91 262 1.0 6.0 0.00 0.00 0.00 61 1015.4
20260902233022 91 261 2.0 3.0 0.00 0.00 0.00 60 1015.3
20260902232521 92 262 2.0 4.0 0.00 0.00 0.00 60 1015.4
20260902232021 92 262 2.0 6.0 0.00 0.00 0.00 59 1015.4
20260902231536 92 262 3.0 7.0 0.00 0.00 0.00 59 1015.3
20260902231024 92 252 3.0 8.0 0.00 0.00 0.00 59 1015.3
20260902230526 92 256 3.0 8.0 0.00 0.00 0.00 58 1015.4
20260902230021 93 213 4.0 8.0 0.00 0.00 0.00 57 1015.4
20260902225524 93 247 4.0 8.0 0.00 0.00 0.00 57 1015.4
20260902225024 93 264 4.0 8.0 0.00 0.00 0.00 56 1015.4
20260902224520 93 234 4.0 8.0 0.00 0.00 0.00 56 1015.3
20260902224024 93 257 5.0 9.0 0.00 0.00 0.00 56 1015.4
20260902223520 93 273 5.0 9.0 0.00 0.00 0.00 56 1015.4
20260902223033 93 267 5.0 10.0 0.00 0.00 0.00 56 1015.4
20260902222521 93 269 4.0 10.0 0.00 0.00 0.00 56 1015.5
20260902222024 94 260 6.0 10.0 0.00 0.00 0.00 56 1015.4
20260902221524 94 250 6.0 10.0 0.00 0.00 0.00 55 1015.4
20260902221018 94 221 6.0 10.0 0.00 0.00 0.00 55 1015.4
20260902220519 94 211 5.0 12.0 0.00 0.00 0.00 56 1015.5
20260902220018 94 234 4.0 11.0 0.00 0.00 0.00 55 1015.5
20260902215517 94 271 6.0 9.0 0.00 0.00 0.00 56 1015.5
20260902215019 94 273 3.0 12.0 0.00 0.00 0.00 56 1015.4
20260902214521 93 268 7.0 13.0 0.00 0.00 0.00 55 1015.5
20260902214017 93 258 8.0 13.0 0.00 0.00 0.00 56 1015.5
20260902213516 93 215 4.0 11.0 0.00 0.00 0.00 56 1015.5
20260902213016 94 230 5.0 13.0 0.00 0.00 0.00 56 1015.6
20260902212516 94 235 6.0 16.0 0.00 0.00 0.00 56 1015.5
20260902212016 94 248 6.0 16.0 0.00 0.00 0.00 55 1015.6
20260902211516 94 275 7.0 13.0 0.00 0.00 0.00 55 1015.5
20260902211014 94 252 3.0 9.0 0.00 0.00 0.00 55 1015.5
20260902210515 94 267 5.0 14.0 0.00 0.00 0.00 54 1015.6
20260902210015 95 248 9.0 14.0 0.00 0.00 0.00 53 1015.6
20260902205514 94 281 4.0 9.0 0.00 0.00 0.00 55 1015.5
20260902205014 95 257 6.0 14.0 0.00 0.00 0.00 53 1015.6
20260902204514 95 275 9.0 14.0 0.00 0.00 0.00 53 1015.6
20260902204014 95 228 4.0 13.0 0.00 0.00 0.00 54 1015.6
20260902203513 95 273 7.0 13.0 0.00 0.00 0.00 53 1015.6
20260902203014 95 227 7.0 13.0 0.00 0.00 0.00 54 1015.6
20260902202512 95 268 6.0 11.0 0.00 0.00 0.00 53 1015.7
20260902202011 95 272 6.0 12.0 0.00 0.00 0.00 54 1015.7
20260902201509 95 277 8.0 12.0 0.00 0.00 0.00 54 1015.7
20260902201008 94 298 7.0 10.0 0.00 0.00 0.00 53 1015.8
20260902200511 95 238 6.0 13.0 0.00 0.00 0.00 54 1016.0
20260902200010 95 254 7.0 13.0 0.00 0.00 0.00 53 1016.0
20260902195506 94 264 7.0 13.0 0.00 0.00 0.00 55 1016.0
20260902195005 94 252 7.0 12.0 0.00 0.00 0.00 55 1016.0
20260902194515 94 257 5.0 12.0 0.00 0.00 0.00 55 1016.2
20260902194005 94 279 6.0 10.0 0.00 0.00 0.00 58 1016.3
20260902193505 93 202 2.0 6.0 0.00 0.00 0.00 58 1016.3
20260902193004 93 206 2.0 6.0 0.00 0.00 0.00 59 1016.4
20260902192504 93 265 4.0 12.0 0.00 0.00 0.00 57 1016.6
20260902192005 94 240 6.0 13.0 0.00 0.00 0.00 56 1016.6
20260902191504 94 283 6.0 10.0 0.00 0.00 0.00 57 1016.6
20260902191006 93 283 4.0 9.0 0.00 0.00 0.00 57 1016.6
20260902190503 93 280 3.0 8.0 0.00 0.00 0.00 58 1016.7
20260902190003 93 269 5.0 12.0 0.00 0.00 0.00 56 1016.9
20260902185503 94 267 5.0 13.0 0.00 0.00 0.00 55 1016.9
20260902185002 94 259 9.0 13.0 0.00 0.00 0.00 55 1016.9
20260902184503 94 238 8.0 11.0 0.00 0.00 0.00 58 1016.8
20260902184002 93 250 3.0 10.0 0.00 0.00 0.00 58 1016.9
20260902183503 94 246 5.0 12.0 0.00 0.00 0.00 56 1016.9
20260902183002 94 257 6.0 13.0 0.00 0.00 0.00 57 1017.0
20260902182502 94 262 5.0 10.0 0.00 0.00 0.00 59 1016.9
20260902182100 94 277 5.0 15.0 0.00 0.00 0.00 57 1017.0
20260902181600 94 240 4.0 15.0 0.00 0.00 0.00 59 1017.0
20260902181059 93 279 4.0 14.0 0.00 0.00 0.00 57 1017.0
20260902180558 94 296 8.0 14.0 0.00 0.00 0.00 56 1017.0
20260902180059 94 205 5.0 15.0 0.00 0.00 0.00 60 1017.0
20260902175558 94 230 7.0 15.0 0.00 0.00 0.00 58 1017.2
20260902175057 93 267 7.0 14.0 0.00 0.00 0.00 57 1017.1
20260902174556 93 244 8.0 13.0 0.00 0.00 0.00 59 1017.1
20260902174057 93 234 7.0 13.0 0.00 0.00 0.00 60 1017.3
20260902173556 93 247 6.0 13.0 0.00 0.00 0.00 60 1017.2
20260902173055 92 209 7.0 10.0 0.00 0.00 0.00 59 1017.2
20260902172554 92 250 9.0 12.0 0.00 0.00 0.00 60 1017.2
20260902172055 92 281 5.0 11.0 0.00 0.00 0.00 59 1017.4
20260902171557 93 252 6.0 12.0 0.00 0.00 0.00 59 1017.5
20260902171057 92 262 7.0 11.0 0.00 0.00 0.00 63 1017.5
20260902170552 92 282 3.0 9.0 0.00 0.00 0.00 62 1017.5
20260902170052 92 284 4.0 11.0 0.00 0.00 0.00 59 1017.5
20260902165552 93 268 7.0 13.0 0.00 0.00 0.00 58 1017.7
20260902165052 93 215 8.0 13.0 0.00 0.00 0.00 58 1017.7
20260902164553 93 273 6.0 11.0 0.00 0.00 0.00 60 1017.7
20260902164049 93 317 3.0 11.0 0.00 0.00 0.00 61 1017.8
20260902163548 92 261 7.0 14.0 0.00 0.00 0.00 60 1018.0
20260902163047 92 248 10.0 14.0 0.00 0.00 0.00 61 1018.1
20260902162545 92 337 3.0 12.0 0.00 0.00 0.00 61 1018.1
20260902162044 92 243 6.0 12.0 0.00 0.00 0.00 60 1018.1
20260902161543 91 215 5.0 13.0 0.00 0.00 0.00 61 1018.2
20260902161041 91 271 7.0 10.0 0.00 0.00 0.00 61 1018.2
20260902160540 91 333 4.0 9.0 0.00 0.00 0.00 61 1018.2
20260902160040 91 274 3.0 7.0 0.00 0.00 0.00 64 1018.2
20260902155538 90 269 3.0 9.0 0.00 0.00 0.00 64 1018.2
20260902155039 90 331 4.0 9.0 0.00 0.00 0.00 64 1018.3
20260902154535 90 339 3.0 8.0 0.00 0.00 0.00 65 1018.3
20260902154035 90 223 4.0 8.0 0.00 0.00 0.00 64 1018.3
20260902153533 90 246 3.0 7.0 0.00 0.00 0.00 64 1018.2
20260902153032 89 267 3.0 6.0 0.00 0.00 0.00 67 1018.1
20260902152529 89 148 2.0 8.0 0.00 0.00 0.00 67 1018.3
20260902152129 89 264 3.0 8.0 0.00 0.00 0.00 67 1018.3
20260902151531 88 259 4.0 8.0 0.00 0.00 0.00 69 1018.3
20260902151026 88 283 2.0 8.0 0.00 0.00 0.00 71 1018.4
20260902150524 87 297 1.0 8.0 0.00 0.00 0.00 71 1018.5
20260902150023 87 271 3.0 8.0 0.00 0.00 0.00 71 1018.5
20260902145522 87 319 4.0 8.0 0.00 0.00 0.00 72 1018.5
20260902145021 86 267 1.0 6.0 0.00 0.00 0.00 73 1018.4
20260902144520 86 209 4.0 6.0 0.00 0.00 0.00 73 1018.4
20260902144017 85 267 4.0 7.0 0.00 0.00 0.00 74 1018.4
20260902143519 85 266 3.0 6.0 0.00 0.00 0.00 76 1018.4
20260902143014 85 274 3.0 6.0 0.00 0.00 0.00 77 1018.4
20260902142516 84 279 2.0 7.0 0.00 0.00 0.00 78 1018.4
20260902142011 84 273 3.0 7.0 0.00 0.00 0.00 79 1018.4
20260902141510 83 294 2.0 9.0 0.00 0.00 0.00 78 1018.4
20260902141009 83 277 4.0 9.0 0.00 0.00 0.00 79 1018.4
20260902140507 82 275 3.0 8.0 0.00 0.00 0.00 80 1018.3
20260902140011 82 271 3.0 8.0 0.00 0.00 0.00 80 1018.3
20260902135504 82 263 2.0 8.0 0.00 0.00 0.00 81 1018.3
20260902135007 81 264 5.0 8.0 0.00 0.00 0.00 81 1018.3
20260902134501 81 230 3.0 5.0 0.00 0.00 0.00 84 1018.3
20260902134059 80 249 3.0 5.0 0.00 0.00 0.00 84 1018.4
20260902133558 80 253 2.0 4.0 0.00 0.00 0.00 85 1018.4
20260902133103 79 241 1.0 4.0 0.00 0.00 0.00 86 1018.4
20260902132555 79 248 1.0 6.0 0.00 0.00 0.00 87 1018.4
20260902132053 78 235 2.0 5.0 0.00 0.00 0.00 87 1018.4
20260902131601 78 221 2.0 5.0 0.00 0.00 0.00 87 1018.4
20260902131053 77 239 2.0 7.0 0.00 0.00 0.00 87 1018.4
20260902130550 77 215 3.0 6.0 0.00 0.00 0.00 87 1018.4
20260902130049 77 209 3.0 7.0 0.00 0.00 0.00 88 1018.4
20260902125549 76 216 4.0 7.0 0.00 0.00 0.00 88 1018.3
20260902125045 76 204 3.0 6.0 0.00 0.00 0.00 88 1018.3
20260902124544 76 244 2.0 7.0 0.00 0.00 0.00 89 1018.3
20260902124042 76 225 4.0 7.0 0.00 0.00 0.00 89 1018.3
20260902123541 75 250 1.0 7.0 0.00 0.00 0.00 89 1018.3
20260902123040 75 225 1.0 7.0 0.00 0.00 0.00 90 1018.2
20260902122538 75 202 4.0 7.0 0.00 0.00 0.00 90 1018.2
20260902122036 75 250 3.0 6.0 0.00 0.00 0.00 91 1018.3
20260902121535 74 257 2.0 4.0 0.00 0.00 0.00 91 1018.3
20260902121034 74 237 2.0 5.0 0.00 0.00 0.00 91 1018.1
20260902120532 74 238 1.0 5.0 0.00 0.00 0.00 91 1018.1
20260902120031 74 200 2.0 7.0 0.00 0.00 0.00 91 1018.1
20260902115532 74 208 4.0 7.0 0.00 0.00 0.00 91 1018.0
20260902115029 74 212 3.0 4.0 0.00 0.00 0.00 91 1017.8
20260902114537 73 204 2.0 4.0 0.00 0.00 0.00 91 1017.8
20260902114030 73 215 2.0 4.0 0.00 0.00 0.00 91 1017.8
20260902113628 73 216 1.0 4.0 0.00 0.00 0.00 92 1017.7
20260902113025 73 217 2.0 4.0 0.00 0.00 0.00 92 1017.7
20260902112525 73 210 1.0 4.0 0.00 0.00 0.00 92 1017.6
20260902112024 73 209 1.0 4.0 0.00 0.00 0.00 92 1017.6
20260902111525 73 209 1.0 4.0 0.00 0.00 0.00 92 1017.6
20260902111022 73 219 1.0 3.0 0.00 0.00 0.00 91 1017.5
20260902110522 73 219 1.0 4.0 0.00 0.00 0.00 91 1017.5
20260902110030 73 219 1.0 4.0 0.00 0.00 0.00 91 1017.6
20260902105521 73 214 0.0 3.0 0.00 0.00 0.00 91 1017.5
20260902105021 73 214 1.0 3.0 0.00 0.00 0.00 91 1017.4
20260902104541 73 214 0.0 0.0 0.00 0.00 0.00 91 1017.5
20260902104022 73 214 0.0 0.0 0.00 0.00 0.00 91 1017.5
20260902103519 73 214 0.0 0.0 0.00 0.00 0.00 90 1017.4
20260902103019 73 214 0.0 0.0 0.00 0.00 0.00 90 1017.3
20260902102518 73 214 0.0 0.0 0.00 0.00 0.00 90 1017.4
20260902102018 73 214 0.0 0.0 0.00 0.00 0.00 90 1017.3
20260902101517 74 214 0.0 1.0 0.00 0.00 0.00 90 1017.3
20260902101018 74 214 0.0 2.0 0.00 0.00 0.00 89 1017.4
20260902100516 74 214 0.0 2.0 0.00 0.00 0.00 89 1017.3
20260902100015 74 214 0.0 2.0 0.00 0.00 0.00 89 1017.4
20260902095515 74 214 0.0 2.0 0.00 0.00 0.00 89 1017.3
20260902095016 74 214 0.0 2.0 0.00 0.00 0.00 89 1017.4
20260902094515 74 214 0.0 2.0 0.00 0.00 0.00 89 1017.3
20260902094015 74 214 0.0 3.0 0.00 0.00 0.00 89 1017.3
20260902093632 74 214 0.0 3.0 0.00 0.00 0.00 89 1017.3
20260902093014 74 213 1.0 3.0 0.00 0.00 0.00 89 1017.2
20260902092513 74 214 1.0 4.0 0.00 0.00 0.00 88 1017.2
20260902092013 75 214 1.0 4.0 0.00 0.00 0.00 88 1017.3
20260902091516 75 214 2.0 5.0 0.00 0.00 0.00 88 1017.3
20260902091012 75 213 1.0 7.0 0.00 0.00 0.00 89 1017.4
20260902090512 75 212 3.0 8.0 0.00 0.00 0.00 89 1017.3
20260902090011 74 209 4.0 8.0 0.00 0.00 0.00 89 1017.3
20260902085510 74 226 1.0 4.0 0.00 0.00 0.00 89 1017.2
20260902085011 74 226 0.0 2.0 0.00 0.00 0.00 89 1017.1
20260902084510 74 226 1.0 5.0 0.00 0.00 0.00 88 1017.0
20260902084016 75 226 2.0 5.0 0.00 0.00 0.00 88 1016.9
20260902083510 75 225 1.0 3.0 0.00 0.00 0.00 88 1016.9
20260902083008 75 225 2.0 3.0 0.00 0.00 0.00 88 1016.8
20260902082508 75 226 2.0 3.0 0.00 0.00 0.00 88 1016.8
20260902082009 75 227 0.0 3.0 0.00 0.00 0.00 88 1016.8
20260902081506 75 227 0.0 2.0 0.00 0.00 0.00 87 1016.7
20260902081006 75 227 0.0 2.0 0.00 0.00 0.00 87 1016.7
20260902080506 75 227 0.0 3.0 0.00 0.00 0.00 87 1016.7
20260902080014 75 227 0.0 3.0 0.00 0.00 0.00 87 1016.7
20260902075506 75 227 1.0 3.0 0.00 0.00 0.00 87 1016.6
20260902075004 75 226 0.0 4.0 0.00 0.00 0.00 87 1016.6
20260902074506 75 226 1.0 4.0 0.00 0.00 0.00 87 1016.6
20260902074003 75 229 1.0 4.0 0.00 0.00 0.00 87 1016.5
20260902073502 76 231 1.0 5.0 0.00 0.00 0.00 87 1016.4
20260902073002 76 233 1.0 5.0 0.00 0.00 0.00 86 1016.4
20260902072501 76 244 1.0 4.0 0.00 0.00 0.00 87 1016.4
20260902072002 76 244 1.0 4.0 0.00 0.00 0.00 86 1016.4
20260902071501 76 257 2.0 4.0 0.00 0.00 0.00 86 1016.3
20260902071001 76 237 2.0 5.0 0.00 0.00 0.00 86 1016.3
20260902070600 76 238 2.0 5.0 0.00 0.00 0.00 86 1016.3
20260902070100 76 234 2.0 5.0 0.00 0.00 0.00 86 1016.2
20260902065600 76 215 2.0 5.0 0.00 0.00 0.00 86 1016.2
20260902065100 76 249 2.0 5.0 0.00 0.00 0.00 86 1016.3
20260902064605 76 248 2.0 4.0 0.00 0.00 0.00 86 1016.3
20260902064059 76 233 2.0 5.0 0.00 0.00 0.00 86 1016.3
20260902063600 76 217 3.0 6.0 0.00 0.00 0.00 86 1016.3
20260902063127 76 217 3.0 6.0 0.00 0.00 0.00 86 1016.3
20260902062557 76 211 3.0 6.0 0.00 0.00 0.00 86 1016.3
20260902062056 77 219 3.0 5.0 0.00 0.00 0.00 86 1016.4
20260902061557 77 220 2.0 4.0 0.00 0.00 0.00 86 1016.4
20260902061055 77 238 2.0 4.0 0.00 0.00 0.00 86 1016.5
20260902060555 77 244 1.0 5.0 0.00 0.00 0.00 86 1016.5
20260902060121 77 228 1.0 5.0 0.00 0.00 0.00 85 1016.5
20260902055553 77 227 2.0 5.0 0.00 0.00 0.00 85 1016.6
20260902055053 77 234 2.0 4.0 0.00 0.00 0.00 85 1016.6
20260902054552 78 235 2.0 4.0 0.00 0.00 0.00 85 1016.6
20260902054055 78 236 2.0 4.0 0.00 0.00 0.00 84 1016.5
20260902053555 78 240 2.0 4.0 0.00 0.00 0.00 84 1016.5
20260902053050 78 232 1.0 4.0 0.00 0.00 0.00 84 1016.6
20260902052548 78 234 1.0 3.0 0.00 0.00 0.00 84 1016.6
20260902052048 78 211 1.0 5.0 0.00 0.00 0.00 84 1016.7